| time (UTC) | temp F | wind direction | speed MPH | gust MPH | rain 1hr in | rain 24hr in | rain mn in | humidity % | barometer mb |
| 20260905225403 | 76 | 288 | 2.0 | 6.0 | 0.00 | 0.83 | 0.83 | 76 | 1014.3 |
| 20260905224505 | 76 | 313 | 0.0 | 2.0 | 0.00 | 0.83 | 0.83 | 75 | 1014.8 |
| 20260905224402 | 77 | 269 | 0.0 | 2.0 | 0.00 | 0.83 | 0.83 | 75 | 1014.0 |
| 20260905223903 | 77 | 339 | 0.0 | 2.0 | 0.00 | 0.83 | 0.83 | 75 | 1014.1 |
| 20260905223403 | 77 | 320 | 0.0 | 5.0 | 0.00 | 0.83 | 0.83 | 75 | 1014.1 |
| 20260905223007 | 76 | 320 | 2.0 | 8.0 | 0.00 | 0.83 | 0.83 | 76 | 1014.9 |
| 20260905222903 | 77 | 323 | 5.0 | 8.0 | 0.00 | 0.83 | 0.83 | 73 | 1014.1 |
| 20260905222403 | 77 | 315 | 5.0 | 8.0 | 0.00 | 0.83 | 0.83 | 73 | 1014.0 |
| 20260905221903 | 77 | 293 | 5.0 | 8.0 | 0.00 | 0.83 | 0.83 | 72 | 1014.1 |
| 20260905221517 | 77 | 313 | 3.0 | 8.0 | 0.00 | 0.83 | 0.83 | 74 | 1014.8 |
| 20260905221403 | 77 | 291 | 5.0 | 7.0 | 0.00 | 0.83 | 0.83 | 73 | 1014.1 |
| 20260905220903 | 78 | 303 | 3.0 | 8.0 | 0.00 | 0.83 | 0.83 | 71 | 1014.0 |
| 20260905220403 | 78 | 320 | 4.0 | 7.0 | 0.00 | 0.83 | 0.83 | 70 | 1013.7 |
| 20260905220018 | 77 | 219 | 4.0 | 13.0 | 0.00 | 0.83 | 0.83 | 72 | 1014.5 |
| 20260905215903 | 78 | 291 | 5.0 | 12.0 | 0.00 | 0.83 | 0.83 | 72 | 1013.6 |
| 20260905215403 | 78 | 324 | 6.0 | 13.0 | 0.00 | 0.83 | 0.83 | 72 | 1013.7 |
| 20260905214902 | 78 | 294 | 3.0 | 9.0 | 0.00 | 0.83 | 0.83 | 72 | 1013.7 |
| 20260905214526 | 77 | 325 | 4.0 | 9.0 | 0.00 | 0.83 | 0.83 | 74 | 1014.4 |
| 20260905214403 | 77 | 329 | 6.0 | 9.0 | 0.00 | 0.83 | 0.83 | 72 | 1013.7 |
| 20260905213903 | 78 | 325 | 4.0 | 10.0 | 0.00 | 0.83 | 0.83 | 72 | 1013.8 |
| 20260905213403 | 78 | 315 | 8.0 | 13.0 | 0.00 | 0.83 | 0.83 | 71 | 1013.7 |
| 20260905213007 | 77 | 318 | 4.0 | 11.0 | 0.00 | 0.83 | 0.83 | 73 | 1014.4 |
| 20260905211902 | 78 | 325 | 7.0 | 12.0 | 0.00 | 0.83 | 0.83 | 69 | 1013.4 |
| 20260905211507 | 78 | 304 | 5.0 | 10.0 | 0.00 | 0.83 | 0.83 | 72 | 1014.3 |
| 20260905211402 | 79 | 305 | 5.0 | 10.0 | 0.00 | 0.83 | 0.83 | 70 | 1013.4 |
| 20260905210903 | 79 | 327 | 6.0 | 9.0 | 0.00 | 0.83 | 0.83 | 69 | 1013.3 |
| 20260905210403 | 79 | 300 | 5.0 | 7.0 | 0.00 | 0.83 | 0.83 | 70 | 1013.4 |
| 20260905210014 | 78 | 360 | 3.0 | 10.0 | 0.00 | 0.83 | 0.83 | 71 | 1014.2 |
| 20260905205903 | 79 | 349 | 3.0 | 7.0 | 0.00 | 0.83 | 0.83 | 71 | 1013.4 |
| 20260905205402 | 78 | 266 | 6.0 | 10.0 | 0.00 | 0.83 | 0.83 | 69 | 1013.3 |
| 20260905204522 | 78 | 338 | 6.0 | 10.0 | 0.00 | 0.83 | 0.83 | 71 | 1014.3 |
| 20260905204403 | 78 | 317 | 6.0 | 10.0 | 0.00 | 0.83 | 0.83 | 70 | 1013.7 |
| 20260905203402 | 78 | 306 | 6.0 | 10.0 | 0.00 | 0.84 | 0.83 | 70 | 1013.5 |
| 20260905203028 | 78 | 323 | 7.0 | 12.0 | 0.00 | 0.84 | 0.83 | 70 | 1014.4 |
| 20260905202903 | 78 | 316 | 9.0 | 12.0 | 0.00 | 0.85 | 0.83 | 67 | 1013.6 |
| 20260905202403 | 78 | 304 | 7.0 | 12.0 | 0.00 | 0.85 | 0.83 | 67 | 1013.7 |
| 20260905201903 | 79 | 334 | 2.0 | 7.0 | 0.00 | 0.85 | 0.83 | 71 | 1013.6 |
| 20260905201530 | 78 | 24 | 4.0 | 7.0 | 0.00 | 0.86 | 0.83 | 70 | 1014.5 |
| 20260905201403 | 79 | 16 | 3.0 | 7.0 | 0.00 | 0.88 | 0.83 | 69 | 1013.6 |
| 20260905200903 | 78 | 13 | 2.0 | 7.0 | 0.00 | 0.90 | 0.83 | 70 | 1013.6 |
| 20260905200403 | 78 | 10 | 2.0 | 7.0 | 0.00 | 0.94 | 0.83 | 70 | 1013.7 |
| 20260905200013 | 78 | 319 | 6.0 | 11.0 | 0.00 | 0.99 | 0.83 | 70 | 1014.6 |
| 20260905195903 | 78 | 299 | 6.0 | 12.0 | 0.00 | 1.03 | 0.83 | 69 | 1013.9 |
| 20260905195402 | 78 | 300 | 5.0 | 9.0 | 0.00 | 1.37 | 0.83 | 70 | 1013.9 |
| 20260905194903 | 78 | 318 | 3.0 | 9.0 | 0.00 | 1.37 | 0.83 | 71 | 1014.0 |
| 20260905194518 | 78 | 309 | 4.0 | 11.0 | 0.00 | 1.37 | 0.83 | 73 | 1014.9 |
| 20260905193902 | 78 | 330 | 7.0 | 12.0 | 0.00 | 1.37 | 0.83 | 71 | 1014.2 |
| 20260905193027 | 78 | 324 | 4.0 | 10.0 | 0.00 | 1.37 | 0.83 | 73 | 1015.0 |
| 20260905192903 | 79 | 0 | 5.0 | 8.0 | 0.00 | 1.37 | 0.83 | 69 | 1014.3 |
| 20260905192402 | 79 | 12 | 4.0 | 10.0 | 0.00 | 1.37 | 0.83 | 69 | 1014.2 |
| 20260905191903 | 79 | 55 | 4.0 | 10.0 | 0.00 | 1.37 | 0.83 | 69 | 1014.2 |
| 20260905191530 | 78 | 19 | 3.0 | 9.0 | 0.00 | 1.37 | 0.83 | 71 | 1015.1 |
| 20260905191403 | 78 | 341 | 3.0 | 7.0 | 0.00 | 1.37 | 0.83 | 68 | 1014.3 |
| 20260905190903 | 78 | 344 | 5.0 | 7.0 | 0.00 | 1.37 | 0.83 | 68 | 1014.4 |
| 20260905190031 | 78 | 16 | 2.0 | 9.0 | 0.00 | 1.37 | 0.83 | 69 | 1015.2 |
| 20260905185903 | 79 | 51 | 4.0 | 9.0 | 0.00 | 1.37 | 0.83 | 67 | 1014.3 |
| 20260905185402 | 79 | 347 | 2.0 | 7.0 | 0.00 | 1.37 | 0.83 | 68 | 1014.4 |
| 20260905184903 | 78 | 306 | 2.0 | 9.0 | 0.00 | 1.37 | 0.83 | 70 | 1014.6 |
| 20260905184515 | 78 | 328 | 3.0 | 9.0 | 0.00 | 1.37 | 0.83 | 73 | 1015.4 |
| 20260905183903 | 79 | 16 | 4.0 | 9.0 | 0.00 | 1.37 | 0.83 | 67 | 1014.7 |
| 20260905183403 | 79 | 64 | 2.0 | 6.0 | 0.00 | 1.37 | 0.83 | 68 | 1014.8 |
| 20260905183020 | 78 | 223 | 2.0 | 9.0 | 0.00 | 1.37 | 0.83 | 71 | 1015.6 |
| 20260905182903 | 78 | 297 | 5.0 | 9.0 | 0.00 | 1.37 | 0.83 | 69 | 1014.8 |
| 20260905182403 | 77 | 292 | 2.0 | 6.0 | 0.00 | 1.37 | 0.83 | 71 | 1015.1 |
| 20260905181903 | 76 | 315 | 4.0 | 7.0 | 0.00 | 1.37 | 0.83 | 73 | 1015.2 |
| 20260905181529 | 76 | 303 | 5.0 | 12.0 | 0.00 | 1.37 | 0.83 | 72 | 1016.0 |
| 20260905181403 | 77 | 295 | 7.0 | 12.0 | 0.00 | 1.37 | 0.83 | 70 | 1015.4 |
| 20260905180902 | 77 | 52 | 1.0 | 5.0 | 0.00 | 1.37 | 0.83 | 71 | 1015.3 |
| 20260905180402 | 77 | 327 | 1.0 | 5.0 | 0.00 | 1.37 | 0.83 | 71 | 1015.3 |
| 20260905180032 | 77 | 334 | 3.0 | 9.0 | 0.00 | 1.37 | 0.83 | 72 | 1016.1 |
| 20260905175902 | 77 | 301 | 6.0 | 9.0 | 0.00 | 1.37 | 0.83 | 71 | 1015.4 |
| 20260905175402 | 77 | 312 | 2.0 | 9.0 | 0.00 | 1.37 | 0.83 | 72 | 1015.2 |
| 20260905174903 | 77 | 317 | 8.0 | 13.0 | 0.00 | 1.37 | 0.83 | 73 | 1015.3 |
| 20260905174541 | 76 | 327 | 4.0 | 15.0 | 0.00 | 1.37 | 0.83 | 75 | 1016.2 |
| 20260905174403 | 77 | 356 | 9.0 | 15.0 | 0.00 | 1.37 | 0.83 | 73 | 1015.4 |
| 20260905173002 | 76 | 289 | 6.0 | 11.0 | 0.00 | 1.37 | 0.83 | 76 | 1016.1 |
| 20260905172903 | 76 | 293 | 5.0 | 9.0 | 0.00 | 1.37 | 0.83 | 74 | 1015.5 |
| 20260905171902 | 76 | 17 | 6.0 | 10.0 | 0.00 | 1.37 | 0.83 | 74 | 1015.4 |
| 20260905171501 | 75 | 331 | 5.0 | 14.0 | 0.00 | 1.37 | 0.83 | 77 | 1016.3 |
| 20260905171403 | 75 | 315 | 6.0 | 12.0 | 0.00 | 1.37 | 0.83 | 76 | 1015.3 |
| 20260905170003 | 76 | 340 | 3.0 | 7.0 | 0.00 | 1.37 | 0.83 | 81 | 1016.1 |
| 20260905165403 | 76 | 320 | 3.0 | 6.0 | 0.00 | 1.37 | 0.83 | 76 | 1015.4 |
| 20260905164903 | 75 | 286 | 3.0 | 7.0 | 0.00 | 1.37 | 0.83 | 78 | 1015.3 |
| 20260905164502 | 74 | 346 | 5.0 | 10.0 | 0.00 | 1.37 | 0.83 | 79 | 1016.2 |
| 20260905163403 | 74 | 340 | 7.0 | 10.0 | 0.00 | 1.37 | 0.83 | 80 | 1015.6 |
| 20260905163002 | 73 | 334 | 4.0 | 14.0 | 0.00 | 1.37 | 0.83 | 81 | 1016.4 |
| 20260905162903 | 74 | 311 | 7.0 | 12.0 | 0.00 | 1.37 | 0.83 | 82 | 1015.8 |
| 20260905162402 | 74 | 331 | 8.0 | 14.0 | 0.00 | 1.37 | 0.83 | 84 | 1015.9 |
| 20260905161502 | 72 | 336 | 7.0 | 13.0 | 0.00 | 1.37 | 0.83 | 88 | 1016.6 |
| 20260905161403 | 73 | 342 | 9.0 | 13.0 | 0.00 | 1.37 | 0.83 | 87 | 1015.9 |
| 20260905160903 | 72 | 324 | 7.0 | 12.0 | 0.00 | 1.37 | 0.83 | 87 | 1016.0 |
| 20260905160002 | 71 | 272 | 0.0 | 4.0 | 0.00 | 1.37 | 0.83 | 90 | 1016.7 |
| 20260905155902 | 71 | 272 | 2.0 | 5.0 | 0.00 | 1.37 | 0.83 | 88 | 1016.0 |
| 20260905155403 | 71 | 112 | 2.0 | 5.0 | 0.00 | 1.37 | 0.83 | 91 | 1015.8 |
| 20260905154902 | 71 | 330 | 1.0 | 5.0 | 0.00 | 1.37 | 0.83 | 92 | 1015.7 |
| 20260905154502 | 70 | 340 | 3.0 | 8.0 | 0.00 | 1.37 | 0.83 | 94 | 1016.4 |
| 20260905154403 | 70 | 331 | 3.0 | 8.0 | 0.00 | 1.37 | 0.83 | 94 | 1015.6 |
| 20260905153402 | 69 | 280 | 6.0 | 8.0 | 0.00 | 1.37 | 0.83 | 95 | 1015.2 |
| 20260905153002 | 68 | 302 | 4.0 | 7.0 | 0.01 | 1.37 | 0.83 | 97 | 1016.0 |
| 20260905152902 | 68 | 281 | 5.0 | 7.0 | 0.01 | 1.37 | 0.83 | 96 | 1015.2 |
| 20260905152403 | 68 | 302 | 3.0 | 6.0 | 0.01 | 1.37 | 0.83 | 96 | 1015.2 |
| 20260905151506 | 67 | 285 | 1.0 | 4.0 | 0.02 | 1.37 | 0.83 | 98 | 1016.0 |
| 20260905151403 | 68 | 323 | 2.0 | 5.0 | 0.03 | 1.37 | 0.83 | 96 | 1015.3 |
| 20260905150403 | 67 | 305 | 2.0 | 6.0 | 0.05 | 1.37 | 0.83 | 96 | 1015.7 |
| 20260905150002 | 67 | 329 | 2.0 | 5.0 | 0.06 | 1.37 | 0.83 | 98 | 1016.7 |
| 20260905145903 | 67 | 293 | 2.0 | 5.0 | 0.06 | 1.37 | 0.83 | 96 | 1015.9 |
| 20260905145403 | 67 | 263 | 0.0 | 1.0 | 0.07 | 1.37 | 0.83 | 100 | 1016.0 |
| 20260905144903 | 67 | 263 | 1.0 | 2.0 | 0.08 | 1.37 | 0.83 | 100 | 1016.2 |
| 20260905144503 | 67 | 199 | 0.0 | 2.0 | 0.08 | 1.37 | 0.83 | 98 | 1017.2 |
| 20260905144403 | 67 | 199 | 0.0 | 2.0 | 0.08 | 1.37 | 0.83 | 100 | 1016.2 |
| 20260905143902 | 67 | 199 | 1.0 | 2.0 | 0.09 | 1.37 | 0.83 | 100 | 1016.5 |
| 20260905143402 | 67 | 199 | 0.0 | 1.0 | 0.10 | 1.37 | 0.83 | 100 | 1016.7 |
| 20260905143003 | 67 | 199 | 0.0 | 2.0 | 0.10 | 1.36 | 0.82 | 98 | 1017.6 |
| 20260905142903 | 67 | 199 | 0.0 | 1.0 | 0.10 | 1.36 | 0.82 | 100 | 1016.7 |
| 20260905142403 | 67 | 199 | 1.0 | 2.0 | 0.12 | 1.36 | 0.82 | 100 | 1016.8 |
| 20260905141903 | 67 | 305 | 0.0 | 1.0 | 0.13 | 1.35 | 0.81 | 100 | 1016.9 |
| 20260905141503 | 67 | 305 | 0.0 | 2.0 | 0.14 | 1.35 | 0.81 | 98 | 1017.8 |
| 20260905141402 | 67 | 305 | 1.0 | 2.0 | 0.13 | 1.34 | 0.80 | 100 | 1017.0 |
| 20260905140903 | 67 | 305 | 1.0 | 2.0 | 0.13 | 1.33 | 0.79 | 100 | 1017.2 |
| 20260905140003 | 66 | 126 | 0.0 | 4.0 | 0.14 | 1.31 | 0.77 | 98 | 1017.9 |
| 20260905135903 | 67 | 126 | 1.0 | 3.0 | 0.15 | 1.31 | 0.77 | 96 | 1017.0 |
| 20260905135403 | 67 | 138 | 3.0 | 5.0 | 0.18 | 1.30 | 0.76 | 96 | 1017.2 |
| 20260905134902 | 67 | 124 | 1.0 | 3.0 | 0.32 | 1.29 | 0.75 | 96 | 1017.8 |
| 20260905134503 | 67 | 247 | 0.0 | 3.0 | 0.52 | 1.29 | 0.75 | 98 | 1018.5 |
| 20260905134402 | 67 | 241 | 1.0 | 3.0 | 0.58 | 1.29 | 0.75 | 96 | 1017.9 |
| 20260905133902 | 67 | 225 | 2.0 | 3.0 | 0.69 | 1.28 | 0.74 | 96 | 1017.8 |
| 20260905133403 | 67 | 230 | 1.0 | 5.0 | 0.69 | 1.27 | 0.73 | 96 | 1017.8 |
| 20260905133005 | 67 | 277 | 2.0 | 5.0 | 0.68 | 1.26 | 0.72 | 98 | 1018.4 |
| 20260905132903 | 67 | 229 | 2.0 | 5.0 | 0.68 | 1.26 | 0.72 | 96 | 1017.7 |
| 20260905132403 | 67 | 231 | 1.0 | 6.0 | 0.66 | 1.24 | 0.70 | 96 | 1017.5 |
| 20260905131903 | 67 | 213 | 1.0 | 6.0 | 0.64 | 1.22 | 0.68 | 96 | 1017.3 |
| 20260905131503 | 67 | 219 | 1.0 | 9.0 | 0.63 | 1.21 | 0.67 | 98 | 1017.9 |
| 20260905131403 | 67 | 308 | 2.0 | 9.0 | 0.63 | 1.21 | 0.67 | 96 | 1017.0 |
| 20260905130903 | 67 | 235 | 2.0 | 6.0 | 0.62 | 1.20 | 0.66 | 100 | 1017.0 |
| 20260905130403 | 67 | 325 | 5.0 | 8.0 | 0.61 | 1.18 | 0.64 | 100 | 1017.1 |
| 20260905130004 | 67 | 261 | 2.0 | 12.0 | 0.60 | 1.16 | 0.63 | 98 | 1017.8 |
| 20260905125902 | 67 | 274 | 3.0 | 12.0 | 0.59 | 1.16 | 0.62 | 100 | 1016.9 |
| 20260905125402 | 67 | 347 | 5.0 | 12.0 | 0.57 | 1.12 | 0.58 | 100 | 1017.2 |
| 20260905124902 | 67 | 251 | 7.0 | 20.0 | 0.42 | 0.97 | 0.43 | 100 | 1017.3 |
| 20260905124503 | 66 | 324 | 3.0 | 9.0 | 0.22 | 0.77 | 0.23 | 99 | 1018.0 |
| 20260905124403 | 66 | 297 | 6.0 | 8.0 | 0.16 | 0.71 | 0.17 | 100 | 1016.6 |
| 20260905123403 | 66 | 161 | 0.0 | 0.0 | 0.03 | 0.58 | 0.04 | 100 | 1015.5 |
| 20260905123003 | 65 | 161 | 0.0 | 0.0 | 0.03 | 0.58 | 0.04 | 99 | 1016.2 |
| 20260905122903 | 66 | 161 | 0.0 | 0.0 | 0.03 | 0.58 | 0.04 | 100 | 1015.5 |
| 20260905122403 | 66 | 161 | 0.0 | 0.0 | 0.03 | 0.58 | 0.04 | 100 | 1015.4 |
| 20260905121903 | 66 | 161 | 0.0 | 0.0 | 0.03 | 0.58 | 0.04 | 100 | 1015.3 |
| 20260905121503 | 65 | 161 | 0.0 | 6.0 | 0.03 | 0.58 | 0.04 | 99 | 1016.1 |
| 20260905121402 | 66 | 161 | 1.0 | 3.0 | 0.03 | 0.58 | 0.04 | 100 | 1015.3 |
| 20260905120902 | 66 | 193 | 3.0 | 6.0 | 0.03 | 0.58 | 0.04 | 100 | 1015.5 |
| 20260905120403 | 66 | 144 | 1.0 | 3.0 | 0.02 | 0.57 | 0.03 | 100 | 1015.5 |
| 20260905120003 | 65 | 121 | 0.0 | 0.0 | 0.02 | 0.57 | 0.03 | 99 | 1016.2 |
| 20260905115902 | 66 | 121 | 0.0 | 0.0 | 0.02 | 0.57 | 0.03 | 100 | 1015.4 |
| 20260905115402 | 66 | 121 | 0.0 | 0.0 | 0.00 | 0.55 | 0.01 | 100 | 1015.3 |
| 20260905114903 | 65 | 121 | 0.0 | 1.0 | 0.00 | 0.55 | 0.01 | 100 | 1015.2 |
| 20260905114504 | 65 | 121 | 0.0 | 2.0 | 0.00 | 0.55 | 0.01 | 99 | 1015.9 |
| 20260905114403 | 65 | 121 | 0.0 | 2.0 | 0.00 | 0.55 | 0.01 | 100 | 1015.3 |
| 20260905113903 | 65 | 128 | 1.0 | 2.0 | 0.00 | 0.55 | 0.01 | 100 | 1015.3 |
| 20260905113403 | 65 | 254 | 1.0 | 3.0 | 0.00 | 0.55 | 0.01 | 100 | 1015.2 |
| 20260905113007 | 65 | 254 | 0.0 | 3.0 | 0.00 | 0.55 | 0.01 | 99 | 1015.9 |
| 20260905112903 | 65 | 316 | 1.0 | 3.0 | 0.00 | 0.55 | 0.01 | 100 | 1015.2 |
| 20260905112402 | 65 | 292 | 1.0 | 3.0 | 0.00 | 0.55 | 0.01 | 100 | 1015.2 |
| 20260905111903 | 65 | 243 | 2.0 | 3.0 | 0.00 | 0.55 | 0.01 | 100 | 1015.3 |
| 20260905111508 | 64 | 223 | 0.0 | 3.0 | 0.00 | 0.55 | 0.01 | 98 | 1016.1 |
| 20260905110903 | 65 | 155 | 0.0 | 0.0 | 0.00 | 0.55 | 0.01 | 100 | 1015.0 |
| 20260905110402 | 65 | 155 | 0.0 | 1.0 | 0.00 | 0.55 | 0.01 | 100 | 1015.0 |
| 20260905110010 | 65 | 155 | 0.0 | 2.0 | 0.00 | 0.55 | 0.01 | 98 | 1015.8 |
| 20260905105903 | 65 | 155 | 0.0 | 2.0 | 0.00 | 0.55 | 0.01 | 100 | 1014.9 |
| 20260905105403 | 65 | 155 | 1.0 | 2.0 | 0.00 | 0.55 | 0.01 | 100 | 1014.9 |
| 20260905104902 | 65 | 155 | 1.0 | 2.0 | 0.00 | 0.55 | 0.01 | 100 | 1014.9 |
| 20260905104508 | 65 | 168 | 1.0 | 3.0 | 0.00 | 0.55 | 0.01 | 99 | 1015.7 |
| 20260905104402 | 65 | 205 | 2.0 | 3.0 | 0.00 | 0.55 | 0.01 | 100 | 1015.0 |
| 20260905103903 | 65 | 294 | 0.0 | 2.0 | 0.00 | 0.55 | 0.01 | 100 | 1015.1 |
| 20260905103402 | 65 | 294 | 1.0 | 3.0 | 0.00 | 0.55 | 0.01 | 100 | 1015.0 |
| 20260905103017 | 65 | 294 | 0.0 | 0.0 | 0.00 | 0.55 | 0.01 | 98 | 1015.8 |
| 20260905102903 | 65 | 294 | 0.0 | 0.0 | 0.00 | 0.55 | 0.01 | 100 | 1015.0 |
| 20260905102403 | 65 | 294 | 0.0 | 0.0 | 0.00 | 0.55 | 0.01 | 100 | 1015.1 |
| 20260905101903 | 65 | 294 | 0.0 | 0.0 | 0.00 | 0.55 | 0.01 | 100 | 1015.0 |
| 20260905101509 | 65 | 294 | 0.0 | 0.0 | 0.00 | 0.55 | 0.01 | 98 | 1015.9 |
| 20260905101403 | 65 | 294 | 0.0 | 0.0 | 0.00 | 0.55 | 0.01 | 100 | 1015.2 |
| 20260905100903 | 65 | 294 | 0.0 | 0.0 | 0.00 | 0.55 | 0.01 | 100 | 1015.3 |
| 20260905100402 | 65 | 294 | 0.0 | 0.0 | 0.00 | 0.55 | 0.01 | 100 | 1015.2 |
| 20260905100009 | 65 | 294 | 0.0 | 0.0 | 0.00 | 0.55 | 0.01 | 98 | 1016.1 |
| 20260905095903 | 65 | 294 | 0.0 | 0.0 | 0.00 | 0.55 | 0.01 | 100 | 1015.2 |
| 20260905094903 | 65 | 294 | 0.0 | 0.0 | 0.00 | 0.56 | 0.01 | 100 | 1015.3 |
| 20260905094513 | 65 | 294 | 0.0 | 0.0 | 0.00 | 0.56 | 0.01 | 99 | 1016.1 |
| 20260905094403 | 65 | 294 | 0.0 | 0.0 | 0.00 | 0.56 | 0.01 | 100 | 1015.3 |
| 20260905093903 | 65 | 294 | 0.0 | 0.0 | 0.00 | 0.56 | 0.01 | 100 | 1015.2 |
| 20260905093403 | 65 | 294 | 0.0 | 0.0 | 0.00 | 0.56 | 0.01 | 100 | 1015.2 |
| 20260905093011 | 65 | 294 | 0.0 | 0.0 | 0.00 | 0.56 | 0.01 | 98 | 1016.0 |
| 20260905092403 | 65 | 294 | 0.0 | 0.0 | 0.00 | 0.56 | 0.01 | 100 | 1015.2 |
| 20260905091540 | 65 | 294 | 0.0 | 0.0 | 0.00 | 0.56 | 0.01 | 98 | 1016.1 |
| 20260905091403 | 65 | 294 | 0.0 | 0.0 | 0.00 | 0.56 | 0.01 | 100 | 1015.3 |
| 20260905090902 | 65 | 294 | 0.0 | 0.0 | 0.00 | 0.56 | 0.01 | 100 | 1015.2 |
| 20260905090403 | 65 | 294 | 0.0 | 0.0 | 0.00 | 0.56 | 0.01 | 100 | 1015.1 |
| 20260905090012 | 65 | 294 | 0.0 | 0.0 | 0.00 | 0.56 | 0.01 | 98 | 1016.0 |
| 20260905085903 | 65 | 294 | 0.0 | 0.0 | 0.00 | 0.56 | 0.01 | 100 | 1015.1 |
| 20260905084903 | 65 | 294 | 0.0 | 0.0 | 0.00 | 0.56 | 0.01 | 100 | 1015.1 |
| 20260905084515 | 65 | 294 | 0.0 | 0.0 | 0.00 | 0.56 | 0.01 | 98 | 1015.8 |
| 20260905084402 | 65 | 294 | 0.0 | 0.0 | 0.00 | 0.56 | 0.01 | 100 | 1015.1 |
| 20260905083903 | 65 | 294 | 0.0 | 0.0 | 0.00 | 0.56 | 0.01 | 100 | 1015.1 |
| 20260905083403 | 65 | 294 | 0.0 | 0.0 | 0.00 | 0.56 | 0.01 | 100 | 1015.1 |
| 20260905083003 | 65 | 294 | 0.0 | 0.0 | 0.00 | 0.56 | 0.01 | 98 | 1016.0 |
| 20260905082903 | 65 | 294 | 0.0 | 0.0 | 0.00 | 0.56 | 0.01 | 100 | 1015.1 |
| 20260905082403 | 65 | 294 | 0.0 | 0.0 | 0.00 | 0.56 | 0.01 | 100 | 1015.2 |
| 20260905081505 | 65 | 294 | 0.0 | 0.0 | 0.00 | 0.56 | 0.01 | 98 | 1016.1 |
| 20260905081403 | 65 | 294 | 0.0 | 0.0 | 0.00 | 0.56 | 0.01 | 100 | 1015.3 |
| 20260905080903 | 65 | 294 | 0.0 | 0.0 | 0.00 | 0.56 | 0.01 | 100 | 1015.3 |
| 20260905080007 | 65 | 294 | 0.0 | 0.0 | 0.00 | 0.56 | 0.01 | 98 | 1016.1 |
| 20260905075903 | 65 | 294 | 0.0 | 0.0 | 0.00 | 0.56 | 0.01 | 100 | 1015.3 |
| 20260905075402 | 65 | 294 | 0.0 | 0.0 | 0.00 | 0.56 | 0.01 | 100 | 1015.4 |
| 20260905074902 | 65 | 294 | 0.0 | 0.0 | 0.00 | 0.56 | 0.01 | 100 | 1015.4 |
| 20260905074513 | 65 | 294 | 0.0 | 0.0 | 0.01 | 0.56 | 0.01 | 98 | 1016.2 |
| 20260905074403 | 65 | 294 | 0.0 | 0.0 | 0.01 | 0.56 | 0.01 | 100 | 1015.5 |
| 20260905073903 | 66 | 294 | 0.0 | 0.0 | 0.01 | 0.56 | 0.01 | 100 | 1015.5 |
| 20260905073403 | 66 | 294 | 0.0 | 0.0 | 0.01 | 0.56 | 0.01 | 100 | 1015.6 |
| 20260905073018 | 65 | 294 | 0.0 | 0.0 | 0.01 | 0.56 | 0.01 | 98 | 1016.4 |
| 20260905072903 | 66 | 294 | 0.0 | 0.0 | 0.01 | 0.56 | 0.01 | 100 | 1015.6 |
| 20260905072403 | 66 | 294 | 0.0 | 0.0 | 0.01 | 0.56 | 0.01 | 100 | 1015.7 |
| 20260905071903 | 66 | 294 | 0.0 | 0.0 | 0.01 | 0.56 | 0.01 | 100 | 1015.8 |
| 20260905071504 | 65 | 294 | 0.0 | 0.0 | 0.01 | 0.56 | 0.01 | 98 | 1016.4 |
| 20260905071403 | 66 | 294 | 0.0 | 0.0 | 0.01 | 0.56 | 0.01 | 100 | 1015.8 |
| 20260905070903 | 66 | 294 | 0.0 | 0.0 | 0.01 | 0.56 | 0.01 | 100 | 1015.8 |
| 20260905070403 | 66 | 294 | 0.0 | 0.0 | 0.01 | 0.56 | 0.01 | 100 | 1016.0 |
| 20260905070004 | 65 | 294 | 0.0 | 0.0 | 0.01 | 0.56 | 0.01 | 98 | 1016.8 |
| 20260905065903 | 66 | 294 | 0.0 | 0.0 | 0.01 | 0.56 | 0.01 | 100 | 1016.1 |
| 20260905064902 | 66 | 294 | 0.0 | 0.0 | 0.01 | 0.56 | 0.01 | 100 | 1016.3 |
| 20260905064507 | 65 | 294 | 0.0 | 0.0 | 0.00 | 0.55 | 0.00 | 98 | 1017.2 |
| 20260905064402 | 66 | 294 | 0.0 | 0.0 | 0.00 | 0.55 | 0.00 | 100 | 1016.4 |
| 20260905063403 | 66 | 294 | 0.0 | 0.0 | 0.00 | 0.55 | 0.00 | 100 | 1016.5 |
| 20260905063014 | 65 | 294 | 0.0 | 0.0 | 0.00 | 0.55 | 0.00 | 98 | 1017.4 |
| 20260905062403 | 66 | 294 | 0.0 | 0.0 | 0.00 | 0.55 | 0.00 | 98 | 1016.7 |
| 20260905061903 | 66 | 294 | 0.0 | 0.0 | 0.00 | 0.55 | 0.00 | 100 | 1016.8 |
| 20260905061520 | 65 | 294 | 0.0 | 0.0 | 0.00 | 0.55 | 0.00 | 98 | 1017.7 |
| 20260905061403 | 66 | 294 | 0.0 | 0.0 | 0.00 | 0.55 | 0.00 | 100 | 1016.8 |
| 20260905060902 | 66 | 294 | 0.0 | 0.0 | 0.00 | 0.55 | 0.00 | 100 | 1016.9 |
| 20260905060003 | 65 | 294 | 0.0 | 0.0 | 0.00 | 0.55 | 0.00 | 98 | 1017.9 |
| 20260905055903 | 66 | 294 | 0.0 | 0.0 | 0.00 | 0.55 | 0.00 | 100 | 1017.2 |
| 20260905055403 | 66 | 294 | 0.0 | 0.0 | 0.00 | 0.55 | 0.00 | 100 | 1017.2 |
| 20260905054903 | 66 | 294 | 0.0 | 0.0 | 0.00 | 0.55 | 0.00 | 100 | 1017.2 |
| 20260905054508 | 65 | 294 | 0.0 | 0.0 | 0.00 | 0.55 | 0.00 | 98 | 1018.0 |
| 20260905054403 | 66 | 294 | 0.0 | 0.0 | 0.00 | 0.55 | 0.00 | 100 | 1017.4 |
| 20260905053902 | 66 | 294 | 0.0 | 0.0 | 0.00 | 0.55 | 0.00 | 100 | 1017.5 |
| 20260905053403 | 66 | 274 | 0.0 | 0.0 | 0.00 | 0.55 | 0.00 | 100 | 1017.5 |
| 20260905053010 | 65 | 274 | 0.0 | 0.0 | 0.00 | 0.55 | 0.00 | 98 | 1018.2 |
| 20260905052903 | 66 | 274 | 0.0 | 0.0 | 0.00 | 0.55 | 0.00 | 100 | 1017.6 |
| 20260905052403 | 66 | 274 | 0.0 | 0.0 | 0.00 | 0.55 | 0.00 | 99 | 1017.5 |
| 20260905051902 | 66 | 274 | 0.0 | 0.0 | 0.00 | 0.55 | 0.00 | 96 | 1017.5 |
| 20260905051516 | 65 | 274 | 0.0 | 0.0 | 0.00 | 0.55 | 0.00 | 98 | 1018.3 |
| 20260905050903 | 66 | 274 | 0.0 | 0.0 | 0.00 | 0.55 | 0.00 | 96 | 1017.7 |
| 20260905050403 | 66 | 274 | 0.0 | 0.0 | 0.00 | 0.55 | 0.00 | 96 | 1017.7 |
| 20260905050031 | 65 | 274 | 0.0 | 0.0 | 0.00 | 0.55 | 0.00 | 98 | 1018.4 |
| 20260905045902 | 66 | 274 | 0.0 | 0.0 | 0.00 | 0.55 | 0.00 | 96 | 1017.7 |
| 20260905045403 | 65 | 274 | 0.0 | 0.0 | 0.00 | 0.55 | 0.00 | 96 | 1017.7 |
| 20260905044503 | 65 | 274 | 0.0 | 0.0 | 0.00 | 0.55 | 0.00 | 98 | 1018.5 |
| 20260905044403 | 65 | 274 | 0.0 | 0.0 | 0.00 | 0.55 | 0.00 | 96 | 1017.8 |
| 20260905043403 | 66 | 274 | 0.0 | 0.0 | 0.00 | 0.58 | 0.00 | 96 | 1017.8 |
| 20260905043018 | 65 | 274 | 0.0 | 0.0 | 0.00 | 0.64 | 0.00 | 98 | 1018.5 |
| 20260905042903 | 65 | 274 | 0.0 | 0.0 | 0.00 | 0.64 | 0.00 | 97 | 1017.9 |
| 20260905042403 | 65 | 274 | 0.0 | 0.0 | 0.00 | 0.64 | 0.00 | 100 | 1017.9 |
| 20260905041903 | 65 | 274 | 0.0 | 0.0 | 0.00 | 0.64 | 0.00 | 100 | 1018.0 |
| 20260905041514 | 65 | 274 | 0.0 | 0.0 | 0.00 | 0.64 | 0.00 | 98 | 1018.6 |
| 20260905041403 | 65 | 274 | 0.0 | 0.0 | 0.00 | 0.64 | 0.00 | 100 | 1017.8 |
| 20260905040903 | 65 | 273 | 0.0 | 0.0 | 0.00 | 0.64 | 0.00 | 100 | 1017.8 |
| 20260905040402 | 65 | 273 | 0.0 | 2.0 | 0.00 | 0.64 | 0.00 | 96 | 1017.8 |
| 20260905040021 | 65 | 273 | 0.0 | 2.0 | 0.00 | 0.64 | 0.00 | 98 | 1018.5 |
| 20260905035903 | 65 | 273 | 0.0 | 2.0 | 0.00 | 0.64 | 0.64 | 96 | 1018.0 |
| 20260905034902 | 65 | 273 | 1.0 | 3.0 | 0.00 | 0.65 | 0.64 | 96 | 1018.0 |
| 20260905034527 | 65 | 259 | 1.0 | 3.0 | 0.00 | 0.74 | 0.64 | 98 | 1018.6 |
| 20260905034402 | 65 | 259 | 1.0 | 2.0 | 0.00 | 0.74 | 0.64 | 96 | 1017.9 |
| 20260905033903 | 65 | 259 | 1.0 | 3.0 | 0.00 | 0.74 | 0.64 | 96 | 1017.8 |
| 20260905033403 | 65 | 259 | 1.0 | 2.0 | 0.00 | 0.74 | 0.64 | 96 | 1017.9 |
| 20260905033033 | 65 | 259 | 0.0 | 1.0 | 0.00 | 0.74 | 0.64 | 98 | 1018.5 |
| 20260905032903 | 65 | 259 | 0.0 | 1.0 | 0.00 | 0.74 | 0.64 | 96 | 1017.8 |
| 20260905032403 | 65 | 259 | 0.0 | 1.0 | 0.00 | 0.74 | 0.64 | 96 | 1017.7 |
| 20260905031903 | 65 | 259 | 1.0 | 2.0 | 0.00 | 0.74 | 0.64 | 96 | 1017.8 |
| 20260905031510 | 65 | 259 | 0.0 | 1.0 | 0.00 | 0.74 | 0.64 | 98 | 1018.4 |
| 20260905031403 | 65 | 259 | 0.0 | 1.0 | 0.00 | 0.74 | 0.64 | 96 | 1017.7 |
| 20260905030903 | 65 | 259 | 0.0 | 0.0 | 0.00 | 0.74 | 0.64 | 96 | 1017.5 |
| 20260905030031 | 65 | 259 | 0.0 | 3.0 | 0.00 | 0.74 | 0.64 | 98 | 1018.2 |
| 20260905025403 | 65 | 259 | 0.0 | 3.0 | 0.00 | 0.74 | 0.64 | 96 | 1017.4 |
| 20260905024903 | 65 | 267 | 2.0 | 3.0 | 0.00 | 0.74 | 0.64 | 96 | 1017.3 |
| 20260905024524 | 65 | 313 | 1.0 | 4.0 | 0.00 | 0.74 | 0.64 | 97 | 1018.1 |
| 20260905024403 | 66 | 313 | 2.0 | 3.0 | 0.00 | 0.74 | 0.64 | 96 | 1017.3 |
| 20260905023903 | 66 | 318 | 1.0 | 5.0 | 0.00 | 0.74 | 0.64 | 96 | 1017.3 |
| 20260905023403 | 66 | 281 | 1.0 | 2.0 | 0.00 | 0.74 | 0.64 | 96 | 1017.3 |
| 20260905023033 | 65 | 281 | 0.0 | 2.0 | 0.00 | 0.74 | 0.64 | 98 | 1018.0 |
| 20260905022903 | 66 | 281 | 1.0 | 2.0 | 0.00 | 0.74 | 0.64 | 96 | 1017.3 |
| 20260905022403 | 66 | 281 | 1.0 | 2.0 | 0.00 | 0.74 | 0.64 | 96 | 1017.3 |
| 20260905021903 | 66 | 300 | 1.0 | 2.0 | 0.00 | 0.74 | 0.64 | 96 | 1017.3 |
| 20260905021534 | 66 | 300 | 1.0 | 3.0 | 0.00 | 0.74 | 0.64 | 97 | 1017.9 |
| 20260905021403 | 66 | 300 | 1.0 | 3.0 | 0.00 | 0.74 | 0.64 | 96 | 1017.2 |
| 20260905020904 | 66 | 300 | 2.0 | 3.0 | 0.00 | 0.74 | 0.64 | 96 | 1017.2 |
| 20260905020013 | 66 | 270 | 1.0 | 3.0 | 0.00 | 0.74 | 0.64 | 97 | 1017.8 |
| 20260905015902 | 66 | 270 | 1.0 | 2.0 | 0.00 | 0.74 | 0.64 | 96 | 1017.1 |
| 20260905015403 | 66 | 270 | 1.0 | 3.0 | 0.00 | 0.74 | 0.64 | 96 | 1017.1 |
| 20260905014903 | 66 | 270 | 1.0 | 2.0 | 0.00 | 0.74 | 0.64 | 96 | 1017.1 |
| 20260905014522 | 66 | 270 | 1.0 | 2.0 | 0.00 | 0.74 | 0.64 | 97 | 1017.7 |
| 20260905014402 | 66 | 270 | 1.0 | 2.0 | 0.00 | 0.74 | 0.64 | 96 | 1017.1 |
| 20260905013030 | 66 | 297 | 1.0 | 3.0 | 0.00 | 0.74 | 0.64 | 97 | 1017.8 |
| 20260905012903 | 67 | 297 | 2.0 | 3.0 | 0.00 | 0.74 | 0.64 | 96 | 1017.0 |
| 20260905012403 | 67 | 297 | 0.0 | 3.0 | 0.00 | 0.74 | 0.64 | 96 | 1017.1 |
| 20260905011903 | 67 | 297 | 0.0 | 0.0 | 0.00 | 0.74 | 0.64 | 96 | 1017.0 |
| 20260905011505 | 66 | 297 | 0.0 | 0.0 | 0.00 | 0.74 | 0.64 | 97 | 1017.7 |
| 20260905011403 | 67 | 297 | 0.0 | 0.0 | 0.00 | 0.74 | 0.64 | 95 | 1017.0 |
| 20260905010903 | 67 | 297 | 0.0 | 1.0 | 0.00 | 0.74 | 0.64 | 95 | 1017.0 |
| 20260905010016 | 67 | 252 | 1.0 | 4.0 | 0.00 | 0.74 | 0.64 | 97 | 1017.7 |
| 20260905005902 | 67 | 252 | 3.0 | 5.0 | 0.00 | 0.74 | 0.64 | 96 | 1016.8 |
| 20260905004902 | 67 | 288 | 2.0 | 3.0 | 0.00 | 0.74 | 0.64 | 95 | 1016.7 |
| 20260905004522 | 67 | 280 | 1.0 | 3.0 | 0.00 | 0.74 | 0.64 | 97 | 1017.5 |
| 20260905004403 | 67 | 280 | 2.0 | 3.0 | 0.00 | 0.74 | 0.64 | 95 | 1016.7 |
| 20260905003903 | 67 | 262 | 2.0 | 3.0 | 0.00 | 0.74 | 0.64 | 95 | 1016.7 |
| 20260905003403 | 67 | 275 | 1.0 | 3.0 | 0.00 | 0.74 | 0.64 | 95 | 1016.6 |
| 20260905003030 | 67 | 275 | 1.0 | 3.0 | 0.00 | 0.74 | 0.64 | 97 | 1017.5 |
| 20260905002403 | 68 | 275 | 1.0 | 3.0 | 0.00 | 0.74 | 0.64 | 95 | 1016.5 |
| 20260905001903 | 68 | 275 | 2.0 | 3.0 | 0.00 | 0.74 | 0.64 | 95 | 1016.5 |
| 20260905001544 | 67 | 275 | 1.0 | 4.0 | 0.00 | 0.74 | 0.64 | 97 | 1017.3 |
| 20260905001403 | 68 | 275 | 1.0 | 3.0 | 0.00 | 0.74 | 0.64 | 95 | 1016.4 |
| 20260905000902 | 68 | 275 | 2.0 | 5.0 | 0.00 | 0.74 | 0.64 | 95 | 1016.4 |
| 20260905000403 | 68 | 295 | 2.0 | 3.0 | 0.00 | 0.74 | 0.64 | 95 | 1016.6 |
| 20260905000007 | 68 | 268 | 1.0 | 3.0 | 0.00 | 0.74 | 0.64 | 97 | 1017.5 |
| 20260904235902 | 68 | 268 | 3.0 | 3.0 | 0.00 | 0.74 | 0.64 | 95 | 1016.6 |
| 20260904235403 | 68 | 297 | 1.0 | 3.0 | 0.00 | 0.74 | 0.64 | 94 | 1016.5 |
| 20260904234903 | 69 | 313 | 2.0 | 3.0 | 0.00 | 0.74 | 0.64 | 94 | 1016.4 |
| 20260904234516 | 68 | 265 | 1.0 | 3.0 | 0.00 | 0.74 | 0.64 | 95 | 1017.3 |
| 20260904234403 | 69 | 265 | 1.0 | 2.0 | 0.00 | 0.74 | 0.64 | 94 | 1016.4 |
| 20260904233902 | 69 | 265 | 2.0 | 3.0 | 0.00 | 0.74 | 0.64 | 93 | 1016.5 |
| 20260904233402 | 69 | 242 | 1.0 | 3.0 | 0.00 | 0.74 | 0.64 | 93 | 1016.6 |
| 20260904233041 | 69 | 242 | 0.0 | 3.0 | 0.00 | 0.74 | 0.64 | 94 | 1017.5 |
| 20260904232903 | 69 | 242 | 1.0 | 2.0 | 0.00 | 0.74 | 0.64 | 93 | 1016.8 |
| 20260904232403 | 70 | 242 | 1.0 | 3.0 | 0.00 | 0.74 | 0.64 | 92 | 1016.8 |
| 20260904231903 | 70 | 283 | 1.0 | 3.0 | 0.00 | 0.74 | 0.64 | 92 | 1017.0 |
| 20260904231533 | 70 | 252 | 1.0 | 3.0 | 0.00 | 0.74 | 0.64 | 93 | 1017.8 |
| 20260904231403 | 70 | 269 | 1.0 | 3.0 | 0.00 | 0.74 | 0.64 | 92 | 1017.0 |
| 20260904230903 | 70 | 322 | 1.0 | 2.0 | 0.00 | 0.74 | 0.64 | 92 | 1016.9 |
| 20260904230403 | 70 | 322 | 1.0 | 3.0 | 0.00 | 0.74 | 0.64 | 91 | 1016.9 |
| 20260904230030 | 70 | 322 | 1.0 | 3.0 | 0.00 | 0.74 | 0.64 | 92 | 1017.7 |